Year,Month,Day,Hour,Minute,Value (Times are PST for temperature in C)
2014,05,18,00,00,10.00
2014,05,18,00,01,10.00
2014,05,18,00,02,10.00
2014,05,18,00,03,9.90
2014,05,18,00,04,9.90
2014,05,18,00,05,9.90
2014,05,18,00,06,9.90
2014,05,18,00,07,9.90
2014,05,18,00,08,9.90
2014,05,18,00,09,9.90
2014,05,18,00,10,9.90
2014,05,18,00,11,9.90
2014,05,18,00,12,9.90
2014,05,18,00,13,9.90
2014,05,18,00,14,9.80
2014,05,18,00,15,9.80
2014,05,18,00,16,9.80
2014,05,18,00,17,9.80
2014,05,18,00,18,9.80
2014,05,18,00,19,9.80
2014,05,18,00,20,9.80
2014,05,18,00,21,9.80
2014,05,18,00,22,9.80
2014,05,18,00,23,9.80
2014,05,18,00,24,9.80
2014,05,18,00,25,9.80
2014,05,18,00,26,9.80
2014,05,18,00,27,9.80
2014,05,18,00,28,9.80
2014,05,18,00,29,9.80
2014,05,18,00,30,9.80
2014,05,18,00,31,9.80
2014,05,18,00,32,9.70
2014,05,18,00,33,9.70
2014,05,18,00,34,9.70
2014,05,18,00,35,9.70
2014,05,18,00,36,9.70
2014,05,18,00,37,9.70
2014,05,18,00,38,9.70
2014,05,18,00,39,9.70
2014,05,18,00,40,9.70
2014,05,18,00,41,9.70
2014,05,18,00,42,9.70
2014,05,18,00,43,9.70
2014,05,18,00,44,9.70
2014,05,18,00,45,9.70
2014,05,18,00,46,9.70
2014,05,18,00,47,9.70
2014,05,18,00,48,9.70
2014,05,18,00,49,9.70
2014,05,18,00,50,9.60
2014,05,18,00,51,9.60
2014,05,18,00,52,9.60
2014,05,18,00,53,9.60
2014,05,18,00,54,9.60
2014,05,18,00,55,9.60
2014,05,18,00,56,9.60
2014,05,18,00,57,9.60
2014,05,18,00,58,9.60
2014,05,18,00,59,9.60
2014,05,18,01,00,9.60
2014,05,18,01,01,9.60
2014,05,18,01,02,9.60
2014,05,18,01,03,9.60
2014,05,18,01,04,9.60
2014,05,18,01,05,9.60
2014,05,18,01,06,9.60
2014,05,18,01,07,9.60
2014,05,18,01,08,9.60
2014,05,18,01,09,9.60
2014,05,18,01,10,9.60
2014,05,18,01,11,9.60
2014,05,18,01,12,9.60
2014,05,18,01,13,9.60
2014,05,18,01,14,9.60
2014,05,18,01,15,9.50
2014,05,18,01,16,9.50
2014,05,18,01,17,9.50
2014,05,18,01,18,9.50
2014,05,18,01,19,9.50
2014,05,18,01,20,9.50
2014,05,18,01,21,9.50
2014,05,18,01,22,9.50
2014,05,18,01,23,9.50
2014,05,18,01,24,9.40
2014,05,18,01,25,9.40
2014,05,18,01,26,9.40
2014,05,18,01,27,9.40
2014,05,18,01,28,9.40
2014,05,18,01,29,9.40
2014,05,18,01,30,9.40
2014,05,18,01,31,9.40
2014,05,18,01,32,9.40
2014,05,18,01,33,9.40
2014,05,18,01,34,9.40
2014,05,18,01,35,9.40
2014,05,18,01,36,9.40
2014,05,18,01,37,9.30
2014,05,18,01,38,9.30
2014,05,18,01,39,9.30
2014,05,18,01,40,9.30
2014,05,18,01,41,9.30
2014,05,18,01,42,9.30
2014,05,18,01,43,9.30
2014,05,18,01,44,9.30
2014,05,18,01,45,9.30
2014,05,18,01,46,9.30
2014,05,18,01,47,9.20
2014,05,18,01,48,9.20
2014,05,18,01,49,9.20
2014,05,18,01,50,9.20
2014,05,18,01,51,9.20
2014,05,18,01,52,9.20
2014,05,18,01,53,9.20
2014,05,18,01,54,9.20
2014,05,18,01,55,9.20
2014,05,18,01,56,9.20
2014,05,18,01,57,9.10
2014,05,18,01,58,9.10
2014,05,18,01,59,9.10
2014,05,18,02,00,9.10
2014,05,18,02,01,9.10
2014,05,18,02,02,9.10
2014,05,18,02,03,9.10
2014,05,18,02,04,9.00
2014,05,18,02,05,9.00
2014,05,18,02,06,9.00
2014,05,18,02,07,9.00
2014,05,18,02,08,9.00
2014,05,18,02,09,9.00
2014,05,18,02,10,9.00
2014,05,18,02,11,9.00
2014,05,18,02,12,9.00
2014,05,18,02,13,9.00
2014,05,18,02,14,8.90
2014,05,18,02,15,8.90
2014,05,18,02,16,8.90
2014,05,18,02,17,8.90
2014,05,18,02,18,8.90
2014,05,18,02,19,8.90
2014,05,18,02,20,8.90
2014,05,18,02,21,8.90
2014,05,18,02,22,8.90
2014,05,18,02,23,8.90
2014,05,18,02,24,8.90
2014,05,18,02,25,8.90
2014,05,18,02,26,8.90
2014,05,18,02,27,8.80
2014,05,18,02,28,8.80
2014,05,18,02,29,8.80
2014,05,18,02,30,8.80
2014,05,18,02,31,8.80
2014,05,18,02,32,8.80
2014,05,18,02,33,8.80
2014,05,18,02,34,8.80
2014,05,18,02,35,8.80
2014,05,18,02,36,8.80
2014,05,18,02,37,8.70
2014,05,18,02,38,8.70
2014,05,18,02,39,8.70
2014,05,18,02,40,8.70
2014,05,18,02,41,8.70
2014,05,18,02,42,8.70
2014,05,18,02,43,8.70
2014,05,18,02,44,8.70
2014,05,18,02,45,8.70
2014,05,18,02,46,8.60
2014,05,18,02,47,8.60
2014,05,18,02,48,8.60
2014,05,18,02,49,8.60
2014,05,18,02,50,8.60
2014,05,18,02,51,8.60
2014,05,18,02,52,8.60
2014,05,18,02,53,8.60
2014,05,18,02,54,8.50
2014,05,18,02,55,8.50
2014,05,18,02,56,8.50
2014,05,18,02,57,8.50
2014,05,18,02,58,8.40
2014,05,18,02,59,8.40
2014,05,18,03,00,8.40
2014,05,18,03,01,8.40
2014,05,18,03,02,8.40
2014,05,18,03,06,8.40
2014,05,18,03,07,8.40
2014,05,18,03,08,8.40
2014,05,18,03,09,8.40
2014,05,18,03,10,8.40
2014,05,18,03,11,8.40
2014,05,18,03,12,8.40
2014,05,18,03,13,8.40
2014,05,18,03,14,8.40
2014,05,18,03,15,8.40
2014,05,18,03,16,8.40
2014,05,18,03,17,8.40
2014,05,18,03,18,8.40
2014,05,18,03,19,8.40
2014,05,18,03,20,8.40
2014,05,18,03,21,8.40
2014,05,18,03,22,8.40
2014,05,18,03,23,8.40
2014,05,18,03,24,8.40
2014,05,18,03,25,8.40
2014,05,18,03,26,8.40
2014,05,18,03,27,8.40
2014,05,18,03,28,8.40
2014,05,18,03,29,8.40
2014,05,18,03,30,8.40
2014,05,18,03,31,8.40
2014,05,18,03,32,8.40
2014,05,18,03,33,8.40
2014,05,18,03,34,8.40
2014,05,18,03,35,8.40
2014,05,18,03,36,8.40
2014,05,18,03,37,8.40
2014,05,18,03,38,8.40
2014,05,18,03,39,8.40
2014,05,18,03,40,8.40
2014,05,18,03,41,8.40
2014,05,18,03,42,8.30
2014,05,18,03,43,8.30
2014,05,18,03,44,8.30
2014,05,18,03,45,8.30
2014,05,18,03,46,8.30
2014,05,18,03,47,8.30
2014,05,18,03,48,8.30
2014,05,18,03,49,8.30
2014,05,18,03,50,8.30
2014,05,18,03,51,8.30
2014,05,18,03,52,8.30
2014,05,18,03,53,8.30
2014,05,18,03,54,8.30
2014,05,18,03,55,8.30
2014,05,18,03,56,8.30
2014,05,18,03,57,8.20
2014,05,18,03,58,8.20
2014,05,18,03,59,8.20
2014,05,18,04,00,8.20
2014,05,18,04,01,8.20
2014,05,18,04,02,8.20
2014,05,18,04,03,8.20
2014,05,18,04,04,8.20
2014,05,18,04,05,8.20
2014,05,18,04,06,8.20
2014,05,18,04,07,8.10
2014,05,18,04,08,8.10
2014,05,18,04,09,8.10
2014,05,18,04,10,8.10
2014,05,18,04,11,8.10
2014,05,18,04,12,8.10
2014,05,18,04,13,8.10
2014,05,18,04,14,8.10
2014,05,18,04,15,8.10
2014,05,18,04,16,8.10
2014,05,18,04,17,8.10
2014,05,18,04,18,8.00
2014,05,18,04,19,8.00
2014,05,18,04,20,8.00
2014,05,18,04,21,8.00
2014,05,18,04,22,8.00
2014,05,18,04,23,7.90
2014,05,18,04,24,7.90
2014,05,18,04,25,7.90
2014,05,18,04,26,7.90
2014,05,18,04,27,7.80
2014,05,18,04,28,7.80
2014,05,18,04,29,7.80
2014,05,18,04,30,7.80
2014,05,18,04,31,7.80
2014,05,18,04,32,7.80
2014,05,18,04,33,7.80
2014,05,18,04,34,7.90
2014,05,18,04,35,7.90
2014,05,18,04,36,7.90
2014,05,18,04,37,7.90
2014,05,18,04,38,7.90
2014,05,18,04,39,7.90
2014,05,18,04,40,7.90
2014,05,18,04,41,7.90
2014,05,18,04,42,7.80
2014,05,18,04,43,7.80
2014,05,18,04,44,7.80
2014,05,18,04,45,7.80
2014,05,18,04,46,7.80
2014,05,18,04,47,7.80
2014,05,18,04,48,7.80
2014,05,18,04,49,7.80
2014,05,18,04,50,7.80
2014,05,18,04,51,7.80
2014,05,18,04,52,7.80
2014,05,18,04,53,7.80
2014,05,18,04,54,7.80
2014,05,18,04,55,7.80
2014,05,18,04,56,7.80
2014,05,18,04,57,7.80
2014,05,18,04,58,7.80
2014,05,18,04,59,7.80
2014,05,18,05,00,7.80
2014,05,18,05,01,7.80
2014,05,18,05,02,7.80
2014,05,18,05,03,7.80
2014,05,18,05,04,7.80
2014,05,18,05,05,7.70
2014,05,18,05,06,7.70
2014,05,18,05,07,7.70
2014,05,18,05,08,7.70
2014,05,18,05,09,7.70
2014,05,18,05,10,7.70
2014,05,18,05,11,7.70
2014,05,18,05,12,7.70
2014,05,18,05,13,7.70
2014,05,18,05,14,7.70
2014,05,18,05,15,7.60
2014,05,18,05,16,7.60
2014,05,18,05,17,7.60
2014,05,18,05,18,7.60
2014,05,18,05,19,7.60
2014,05,18,05,20,7.60
2014,05,18,05,21,7.60
2014,05,18,05,22,7.60
2014,05,18,05,23,7.60
2014,05,18,05,24,7.60
2014,05,18,05,25,7.60
2014,05,18,05,26,7.60
2014,05,18,05,27,7.60
2014,05,18,05,28,7.60
2014,05,18,05,29,7.60
2014,05,18,05,30,7.60
2014,05,18,05,31,7.60
2014,05,18,05,32,7.60
2014,05,18,05,33,7.60
2014,05,18,05,34,7.60
2014,05,18,05,35,7.50
2014,05,18,05,36,7.50
2014,05,18,05,37,7.50
2014,05,18,05,38,7.60
2014,05,18,05,39,7.60
2014,05,18,05,40,7.60
2014,05,18,05,41,7.60
2014,05,18,05,42,7.60
2014,05,18,05,43,7.60
2014,05,18,05,44,7.60
2014,05,18,05,45,7.60
2014,05,18,05,46,7.60
2014,05,18,05,47,7.60
2014,05,18,05,48,7.60
2014,05,18,05,49,7.60
2014,05,18,05,50,7.60
2014,05,18,05,51,7.60
2014,05,18,05,52,7.50
2014,05,18,05,53,7.50
2014,05,18,05,54,7.50
2014,05,18,05,55,7.50
2014,05,18,05,56,7.50
2014,05,18,05,57,7.50
2014,05,18,05,58,7.50
2014,05,18,05,59,7.50
2014,05,18,06,00,7.40
2014,05,18,06,01,7.40
2014,05,18,06,02,7.40
2014,05,18,06,03,7.40
2014,05,18,06,04,7.40
2014,05,18,06,05,7.40
2014,05,18,06,06,7.40
2014,05,18,06,07,7.40
2014,05,18,06,08,7.40
2014,05,18,06,09,7.40
2014,05,18,06,10,7.50
2014,05,18,06,11,7.50
2014,05,18,06,12,7.50
2014,05,18,06,13,7.50
2014,05,18,06,14,7.50
2014,05,18,06,15,7.50
2014,05,18,06,16,7.40
2014,05,18,06,17,7.40
2014,05,18,06,18,7.40
2014,05,18,06,19,7.50
2014,05,18,06,20,7.50
2014,05,18,06,21,7.50
2014,05,18,06,22,7.50
2014,05,18,06,23,7.50
2014,05,18,06,24,7.50
2014,05,18,06,25,7.50
2014,05,18,06,26,7.60
2014,05,18,06,27,7.60
2014,05,18,06,28,7.60
2014,05,18,06,29,7.60
2014,05,18,06,30,7.60
2014,05,18,06,31,7.60
2014,05,18,06,32,7.60
2014,05,18,06,33,7.60
2014,05,18,06,34,7.60
2014,05,18,06,35,7.60
2014,05,18,06,36,7.60
2014,05,18,06,37,7.60
2014,05,18,06,38,7.60
2014,05,18,06,39,7.60
2014,05,18,06,40,7.60
2014,05,18,06,41,7.60
2014,05,18,06,42,7.60
2014,05,18,06,43,7.60
2014,05,18,06,44,7.60
2014,05,18,06,45,7.60
2014,05,18,06,46,7.70
2014,05,18,06,47,7.70
2014,05,18,06,48,7.70
2014,05,18,06,49,7.70
2014,05,18,06,50,7.70
2014,05,18,06,51,7.80
2014,05,18,06,52,7.80
2014,05,18,06,53,7.80
2014,05,18,06,54,7.80
2014,05,18,06,55,7.80
2014,05,18,06,56,7.80
2014,05,18,06,57,7.80
2014,05,18,06,58,7.80
2014,05,18,06,59,7.90
2014,05,18,07,00,7.90
2014,05,18,07,01,7.90
2014,05,18,07,02,7.90
2014,05,18,07,03,7.90
2014,05,18,07,04,7.90
2014,05,18,07,05,7.90
2014,05,18,07,06,7.90
2014,05,18,07,07,7.90
2014,05,18,07,08,7.90
2014,05,18,07,09,7.90
2014,05,18,07,10,7.90
2014,05,18,07,11,7.90
2014,05,18,07,12,8.00
2014,05,18,07,13,8.00
2014,05,18,07,14,8.00
2014,05,18,07,15,8.10
2014,05,18,07,16,8.10
2014,05,18,07,17,8.10
2014,05,18,07,18,8.10
2014,05,18,07,19,8.20
2014,05,18,07,20,8.20
2014,05,18,07,21,8.20
2014,05,18,07,22,8.20
2014,05,18,07,23,8.30
2014,05,18,07,24,8.30
2014,05,18,07,25,8.30
2014,05,18,07,26,8.30
2014,05,18,07,27,8.30
2014,05,18,07,28,8.30
2014,05,18,07,29,8.40
2014,05,18,07,30,8.40
2014,05,18,07,31,8.40
2014,05,18,07,32,8.40
2014,05,18,07,33,8.40
2014,05,18,07,34,8.50
2014,05,18,07,35,8.50
2014,05,18,07,36,8.60
2014,05,18,07,37,8.60
2014,05,18,07,38,8.60
2014,05,18,07,39,8.60
2014,05,18,07,40,8.70
2014,05,18,07,41,8.70
2014,05,18,07,42,8.70
2014,05,18,07,43,8.70
2014,05,18,07,44,8.70
2014,05,18,07,45,8.70
2014,05,18,07,46,8.70
2014,05,18,07,47,8.70
2014,05,18,07,48,8.80
2014,05,18,07,49,8.80
2014,05,18,07,50,8.80
2014,05,18,07,51,8.80
2014,05,18,07,52,8.80
2014,05,18,07,53,8.90
2014,05,18,07,54,8.90
2014,05,18,07,55,8.90
2014,05,18,07,56,8.90
2014,05,18,07,57,9.00
2014,05,18,07,58,9.00
2014,05,18,07,59,9.00
2014,05,18,08,00,9.00
2014,05,18,08,01,9.00
2014,05,18,08,02,9.10
2014,05,18,08,03,9.10
2014,05,18,08,04,9.10
2014,05,18,08,05,9.10
2014,05,18,08,06,9.10
2014,05,18,08,07,9.10
2014,05,18,08,08,9.10
2014,05,18,08,09,9.20
2014,05,18,08,10,9.20
2014,05,18,08,11,9.20
2014,05,18,08,12,9.20
2014,05,18,08,13,9.30
2014,05,18,08,14,9.30
2014,05,18,08,15,9.30
2014,05,18,08,16,9.30
2014,05,18,08,17,9.30
2014,05,18,08,18,9.30
2014,05,18,08,19,9.30
2014,05,18,08,20,9.40
2014,05,18,08,21,9.40
2014,05,18,08,22,9.50
2014,05,18,08,23,9.60
2014,05,18,08,24,9.70
2014,05,18,08,25,9.80
2014,05,18,08,26,9.90
2014,05,18,08,27,10.00
2014,05,18,08,28,10.10
2014,05,18,08,29,10.20
2014,05,18,08,30,10.40
2014,05,18,08,31,10.50
2014,05,18,08,32,10.60
2014,05,18,08,33,10.60
2014,05,18,08,34,10.60
2014,05,18,08,35,10.60
2014,05,18,08,36,10.70
2014,05,18,08,37,10.80
2014,05,18,08,38,10.80
2014,05,18,08,39,10.80
2014,05,18,08,40,10.80
2014,05,18,08,41,10.80
2014,05,18,08,42,10.80
2014,05,18,08,43,10.80
2014,05,18,08,44,10.90
2014,05,18,08,45,10.90
2014,05,18,08,46,11.00
2014,05,18,08,47,11.10
2014,05,18,08,48,11.10
2014,05,18,08,49,11.10
2014,05,18,08,50,11.20
2014,05,18,08,51,11.20
2014,05,18,08,52,11.20
2014,05,18,08,53,11.30
2014,05,18,08,54,11.30
2014,05,18,08,55,11.30
2014,05,18,08,56,11.20
2014,05,18,08,57,11.20
2014,05,18,08,58,11.20
2014,05,18,08,59,11.30
2014,05,18,09,00,11.30
2014,05,18,09,01,11.30
2014,05,18,09,02,11.30
2014,05,18,09,03,11.30
2014,05,18,09,04,11.30
2014,05,18,09,05,11.30
2014,05,18,09,06,11.30
2014,05,18,09,07,11.30
2014,05,18,09,08,11.30
2014,05,18,09,09,11.30
2014,05,18,09,10,11.40
2014,05,18,09,11,11.40
2014,05,18,09,12,11.50
2014,05,18,09,13,11.50
2014,05,18,09,14,11.50
2014,05,18,09,15,11.50
2014,05,18,09,16,11.50
2014,05,18,09,17,11.50
2014,05,18,09,18,11.50
2014,05,18,09,19,11.50
2014,05,18,09,20,11.50
2014,05,18,09,21,11.50
2014,05,18,09,22,11.40
2014,05,18,09,23,11.50
2014,05,18,09,24,11.50
2014,05,18,09,25,11.40
2014,05,18,09,26,11.40
2014,05,18,09,27,11.40
2014,05,18,09,28,11.50
2014,05,18,09,29,11.50
2014,05,18,09,30,11.60
2014,05,18,09,31,11.60
2014,05,18,09,32,11.60
2014,05,18,09,33,11.60
2014,05,18,09,34,11.70
2014,05,18,09,35,11.70
2014,05,18,09,36,11.80
2014,05,18,09,37,11.80
2014,05,18,09,38,11.90
2014,05,18,09,39,12.00
2014,05,18,09,40,12.00
2014,05,18,09,41,12.10
2014,05,18,09,42,12.10
2014,05,18,09,43,12.20
2014,05,18,09,44,12.20
2014,05,18,09,45,12.30
2014,05,18,09,46,12.40
2014,05,18,09,47,12.40
2014,05,18,09,48,12.40
2014,05,18,09,49,12.50
2014,05,18,09,50,12.70
2014,05,18,09,51,12.70
2014,05,18,09,52,12.80
2014,05,18,09,53,12.90
2014,05,18,09,54,12.90
2014,05,18,09,55,13.00
2014,05,18,09,56,13.10
2014,05,18,09,57,13.30
2014,05,18,09,58,13.40
2014,05,18,09,59,13.50
2014,05,18,10,00,13.60
2014,05,18,10,01,13.70
2014,05,18,10,02,13.80
2014,05,18,10,03,13.90
2014,05,18,10,04,14.00
2014,05,18,10,05,14.10
2014,05,18,10,06,14.10
2014,05,18,10,07,14.00
2014,05,18,10,08,14.00
2014,05,18,10,09,13.90
2014,05,18,10,10,13.90
2014,05,18,10,11,13.90
2014,05,18,10,12,13.90
2014,05,18,10,13,13.90
2014,05,18,10,14,13.90
2014,05,18,10,15,13.90
2014,05,18,10,16,13.90
2014,05,18,10,17,13.90
2014,05,18,10,18,14.00
2014,05,18,10,19,14.00
2014,05,18,10,20,14.10
2014,05,18,10,21,14.10
2014,05,18,10,22,14.20
2014,05,18,10,23,14.20
2014,05,18,10,24,14.30
2014,05,18,10,25,14.40
2014,05,18,10,26,14.50
2014,05,18,10,27,14.60
2014,05,18,10,28,14.70
2014,05,18,10,29,14.70
2014,05,18,10,30,14.80
2014,05,18,10,31,14.80
2014,05,18,10,32,14.90
2014,05,18,10,33,14.90
2014,05,18,10,34,15.00
2014,05,18,10,35,15.00
2014,05,18,10,36,15.00
2014,05,18,10,37,15.00
2014,05,18,10,38,15.00
2014,05,18,10,39,15.00
2014,05,18,10,40,15.10
2014,05,18,10,41,15.20
2014,05,18,10,42,15.30
2014,05,18,10,43,15.40
2014,05,18,10,44,15.40
2014,05,18,10,45,15.40
2014,05,18,10,46,15.40
2014,05,18,10,47,15.40
2014,05,18,10,48,15.40
2014,05,18,10,49,15.40
2014,05,18,10,50,15.40
2014,05,18,10,51,15.40
2014,05,18,10,52,15.50
2014,05,18,10,53,15.50
2014,05,18,10,54,15.60
2014,05,18,10,55,15.70
2014,05,18,10,56,15.80
2014,05,18,10,57,16.00
2014,05,18,10,58,16.10
2014,05,18,10,59,16.20
2014,05,18,11,00,16.30
2014,05,18,11,01,16.40
2014,05,18,11,02,16.50
2014,05,18,11,03,16.70
2014,05,18,11,04,16.80
2014,05,18,11,05,16.90
2014,05,18,11,06,17.00
2014,05,18,11,07,17.00
2014,05,18,11,08,17.10
2014,05,18,11,09,17.10
2014,05,18,11,10,17.10
2014,05,18,11,11,17.10
2014,05,18,11,12,17.10
2014,05,18,11,13,17.10
2014,05,18,11,14,17.10
2014,05,18,11,15,17.10
2014,05,18,11,16,17.20
2014,05,18,11,17,17.20
2014,05,18,11,18,17.20
2014,05,18,11,19,17.20
2014,05,18,11,20,17.20
2014,05,18,11,21,17.20
2014,05,18,11,22,17.20
2014,05,18,11,23,17.10
2014,05,18,11,24,17.20
2014,05,18,11,25,17.20
2014,05,18,11,26,17.20
2014,05,18,11,27,17.30
2014,05,18,11,28,17.30
2014,05,18,11,29,17.40
2014,05,18,11,30,17.40
2014,05,18,11,31,17.40
2014,05,18,11,32,17.50
2014,05,18,11,33,17.60
2014,05,18,11,34,17.60
2014,05,18,11,35,17.60
2014,05,18,11,36,17.60
2014,05,18,11,37,17.70
2014,05,18,11,38,17.80
2014,05,18,11,39,17.90
2014,05,18,11,40,17.90
2014,05,18,11,41,18.00
2014,05,18,11,42,18.10
2014,05,18,11,43,18.10
2014,05,18,11,44,18.10
2014,05,18,11,45,18.10
2014,05,18,11,46,18.20
2014,05,18,11,47,18.20
2014,05,18,11,48,18.30
2014,05,18,11,49,18.40
2014,05,18,11,50,18.50
2014,05,18,11,51,18.60
2014,05,18,11,52,18.70
2014,05,18,11,53,18.70
2014,05,18,11,54,18.60
2014,05,18,11,55,18.50
2014,05,18,11,56,18.50
2014,05,18,11,57,18.40
2014,05,18,11,58,18.50
2014,05,18,11,59,18.50
2014,05,18,12,00,18.60
2014,05,18,12,01,18.60
2014,05,18,12,02,18.60
2014,05,18,12,03,18.60
2014,05,18,12,04,18.60
2014,05,18,12,05,18.60
2014,05,18,12,06,18.60
2014,05,18,12,07,18.60
2014,05,18,12,08,18.70
2014,05,18,12,09,18.60
2014,05,18,12,10,18.60
2014,05,18,12,11,18.60
2014,05,18,12,12,18.50
2014,05,18,12,13,18.40
2014,05,18,12,14,18.50
2014,05,18,12,15,18.60
2014,05,18,12,16,18.60
2014,05,18,12,17,18.50
2014,05,18,12,18,18.40
2014,05,18,12,19,18.30
2014,05,18,12,20,18.20
2014,05,18,12,21,18.10
2014,05,18,12,22,18.00
2014,05,18,12,23,17.80
2014,05,18,12,24,17.80
2014,05,18,12,25,17.70
2014,05,18,12,26,17.70
2014,05,18,12,27,17.60
2014,05,18,12,28,17.50
2014,05,18,12,29,17.50
2014,05,18,12,30,17.50
2014,05,18,12,31,17.50
2014,05,18,12,32,17.50
2014,05,18,12,33,17.50
2014,05,18,12,34,17.60
2014,05,18,12,35,17.60
2014,05,18,12,36,17.60
2014,05,18,12,37,17.60
2014,05,18,12,38,17.70
2014,05,18,12,39,17.70
2014,05,18,12,40,17.80
2014,05,18,12,41,17.80
2014,05,18,12,42,17.80
2014,05,18,12,43,17.90
2014,05,18,12,44,17.90
2014,05,18,12,45,17.90
2014,05,18,12,46,17.90
2014,05,18,12,47,17.90
2014,05,18,12,48,18.00
2014,05,18,12,49,18.00
2014,05,18,12,50,18.00
2014,05,18,12,51,18.00
2014,05,18,12,52,18.10
2014,05,18,12,53,18.00
2014,05,18,12,54,18.00
2014,05,18,12,55,18.00
2014,05,18,12,56,18.00
2014,05,18,12,57,18.00
2014,05,18,12,58,17.90
2014,05,18,12,59,17.90
2014,05,18,13,00,17.90
2014,05,18,13,01,17.90
2014,05,18,13,02,17.90
2014,05,18,13,03,17.90
2014,05,18,13,04,17.90
2014,05,18,13,05,17.90
2014,05,18,13,06,17.80
2014,05,18,13,07,17.80
2014,05,18,13,08,17.80
2014,05,18,13,09,17.80
2014,05,18,13,10,17.80
2014,05,18,13,11,17.80
2014,05,18,13,12,17.80
2014,05,18,13,13,17.80
2014,05,18,13,14,17.90
2014,05,18,13,15,17.90
2014,05,18,13,16,17.90
2014,05,18,13,17,17.90
2014,05,18,13,18,17.90
2014,05,18,13,19,17.90
2014,05,18,13,20,17.90
2014,05,18,13,21,17.80
2014,05,18,13,22,17.80
2014,05,18,13,23,17.80
2014,05,18,13,24,17.90
2014,05,18,13,25,17.90
2014,05,18,13,26,17.90
2014,05,18,13,27,17.90
2014,05,18,13,28,17.90
2014,05,18,13,29,17.90
2014,05,18,13,30,17.80
2014,05,18,13,31,17.80
2014,05,18,13,32,17.80
2014,05,18,13,33,17.90
2014,05,18,13,34,17.90
2014,05,18,13,35,17.90
2014,05,18,13,36,17.90
2014,05,18,13,37,17.90
2014,05,18,13,38,17.90
2014,05,18,13,39,17.90
2014,05,18,13,40,17.90
2014,05,18,13,41,17.90
2014,05,18,13,42,17.80
2014,05,18,13,43,17.80
2014,05,18,13,44,17.80
2014,05,18,13,45,17.80
2014,05,18,13,46,17.70
2014,05,18,13,47,17.70
2014,05,18,13,48,17.60
2014,05,18,13,49,17.60
2014,05,18,13,50,17.50
2014,05,18,13,51,17.40
2014,05,18,13,52,17.30
2014,05,18,13,53,17.30
2014,05,18,13,54,17.20
2014,05,18,13,55,17.20
2014,05,18,13,56,17.20
2014,05,18,13,57,17.20
2014,05,18,13,58,17.20
2014,05,18,13,59,17.20
2014,05,18,14,00,17.20
2014,05,18,14,01,17.00
2014,05,18,14,02,16.80
2014,05,18,14,03,16.80
2014,05,18,14,04,16.80
2014,05,18,14,05,16.80
2014,05,18,14,06,16.80
2014,05,18,14,07,16.80
2014,05,18,14,08,16.80
2014,05,18,14,09,16.80
2014,05,18,14,10,16.80
2014,05,18,14,11,16.90
2014,05,18,14,12,16.90
2014,05,18,14,13,16.90
2014,05,18,14,14,16.90
2014,05,18,14,15,16.90
2014,05,18,14,16,16.90
2014,05,18,14,17,16.80
2014,05,18,14,18,16.80
2014,05,18,14,19,16.80
2014,05,18,14,20,16.70
2014,05,18,14,21,16.70
2014,05,18,14,22,16.60
2014,05,18,14,23,16.60
2014,05,18,14,24,16.60
2014,05,18,14,25,16.50
2014,05,18,14,26,16.50
2014,05,18,14,27,16.50
2014,05,18,14,28,16.50
2014,05,18,14,29,16.50
2014,05,18,14,30,16.40
2014,05,18,14,31,16.50
2014,05,18,14,32,16.50
2014,05,18,14,33,16.50
2014,05,18,14,34,16.50
2014,05,18,14,35,16.50
2014,05,18,14,36,16.60
2014,05,18,14,37,16.60
2014,05,18,14,38,16.60
2014,05,18,14,39,16.60
2014,05,18,14,40,16.50
2014,05,18,14,41,16.50
2014,05,18,14,42,16.50
2014,05,18,14,43,16.50
2014,05,18,14,44,16.50
2014,05,18,14,45,16.50
2014,05,18,14,46,16.50
2014,05,18,14,47,16.60
2014,05,18,14,48,16.60
2014,05,18,14,49,16.70
2014,05,18,14,50,16.70
2014,05,18,14,51,16.80
2014,05,18,14,52,16.90
2014,05,18,14,53,17.00
2014,05,18,14,54,17.10
2014,05,18,14,55,17.20
2014,05,18,14,56,17.30
2014,05,18,14,57,17.40
2014,05,18,14,58,17.40
2014,05,18,14,59,17.50
2014,05,18,15,00,17.50
2014,05,18,15,01,17.60
2014,05,18,15,02,17.70
2014,05,18,15,03,17.80
2014,05,18,15,04,17.90
2014,05,18,15,05,18.00
2014,05,18,15,06,18.00
2014,05,18,15,07,18.10
2014,05,18,15,08,18.10
2014,05,18,15,09,18.00
2014,05,18,15,10,18.00
2014,05,18,15,11,18.00
2014,05,18,15,12,17.90
2014,05,18,15,13,17.80
2014,05,18,15,14,17.80
2014,05,18,15,15,17.80
2014,05,18,15,16,17.70
2014,05,18,15,17,17.70
2014,05,18,15,18,17.70
2014,05,18,15,19,17.80
2014,05,18,15,20,17.70
2014,05,18,15,21,17.70
2014,05,18,15,22,17.60
2014,05,18,15,23,17.60
2014,05,18,15,24,17.60
2014,05,18,15,25,17.60
2014,05,18,15,26,17.60
2014,05,18,15,27,17.60
2014,05,18,15,28,17.50
2014,05,18,15,29,17.40
2014,05,18,15,30,17.30
2014,05,18,15,31,17.30
2014,05,18,15,32,17.30
2014,05,18,15,33,17.20
2014,05,18,15,34,17.20
2014,05,18,15,35,17.10
2014,05,18,15,36,17.00
2014,05,18,15,37,16.90
2014,05,18,15,38,16.80
2014,05,18,15,39,16.70
2014,05,18,15,40,16.60
2014,05,18,15,41,16.50
2014,05,18,15,42,16.40
2014,05,18,15,43,16.40
2014,05,18,15,44,16.30
2014,05,18,15,45,16.30
2014,05,18,15,46,16.30
2014,05,18,15,47,16.30
2014,05,18,15,48,16.30
2014,05,18,15,49,16.30
2014,05,18,15,50,16.30
2014,05,18,15,51,16.30
2014,05,18,15,52,16.30
2014,05,18,15,53,16.30
2014,05,18,15,54,16.30
2014,05,18,15,55,16.30
2014,05,18,15,56,16.30
2014,05,18,15,57,16.30
2014,05,18,15,58,16.30
2014,05,18,15,59,16.30
2014,05,18,16,00,16.30
2014,05,18,16,01,16.30
2014,05,18,16,02,16.30
2014,05,18,16,03,16.30
2014,05,18,16,04,16.30
2014,05,18,16,05,16.30
2014,05,18,16,06,16.40
2014,05,18,16,07,16.40
2014,05,18,16,08,16.50
2014,05,18,16,09,16.50
2014,05,18,16,10,16.60
2014,05,18,16,11,16.60
2014,05,18,16,12,16.70
2014,05,18,16,13,16.70
2014,05,18,16,14,16.70
2014,05,18,16,15,16.80
2014,05,18,16,16,16.90
2014,05,18,16,17,16.90
2014,05,18,16,18,17.00
2014,05,18,16,19,17.10
2014,05,18,16,20,17.20
2014,05,18,16,21,17.30
2014,05,18,16,22,17.40
2014,05,18,16,23,17.50
2014,05,18,16,24,17.60
2014,05,18,16,25,17.70
2014,05,18,16,26,17.90
2014,05,18,16,27,18.00
2014,05,18,16,28,18.10
2014,05,18,16,29,18.20
2014,05,18,16,30,18.30
2014,05,18,16,31,18.30
2014,05,18,16,32,18.30
2014,05,18,16,33,18.40
2014,05,18,16,34,18.40
2014,05,18,16,35,18.40
2014,05,18,16,36,18.40
2014,05,18,16,37,18.30
2014,05,18,16,38,18.30
2014,05,18,16,39,18.30
2014,05,18,16,40,18.20
2014,05,18,16,41,18.20
2014,05,18,16,42,18.20
2014,05,18,16,43,18.10
2014,05,18,16,44,18.10
2014,05,18,16,45,18.00
2014,05,18,16,46,17.90
2014,05,18,16,47,17.90
2014,05,18,16,48,17.90
2014,05,18,16,49,17.90
2014,05,18,16,50,17.90
2014,05,18,16,51,18.00
2014,05,18,16,52,18.00
2014,05,18,16,53,17.90
2014,05,18,16,54,17.90
2014,05,18,16,55,17.90
2014,05,18,16,56,17.90
2014,05,18,16,57,17.90
2014,05,18,16,58,17.90
2014,05,18,16,59,17.90
2014,05,18,17,00,17.90
2014,05,18,17,01,17.90
2014,05,18,17,02,17.90
2014,05,18,17,03,17.90
2014,05,18,17,04,17.80
2014,05,18,17,05,17.80
2014,05,18,17,06,17.80
2014,05,18,17,07,17.80
2014,05,18,17,08,17.80
2014,05,18,17,09,17.80
2014,05,18,17,10,17.80
2014,05,18,17,11,17.80
2014,05,18,17,12,17.90
2014,05,18,17,13,17.90
2014,05,18,17,14,17.90
2014,05,18,17,15,17.90
2014,05,18,17,16,17.90
2014,05,18,17,17,17.90
2014,05,18,17,18,17.90
2014,05,18,17,19,17.80
2014,05,18,17,20,17.80
2014,05,18,17,21,17.80
2014,05,18,17,22,17.80
2014,05,18,17,23,17.70
2014,05,18,17,24,17.60
2014,05,18,17,25,17.50
2014,05,18,17,26,17.40
2014,05,18,17,27,17.30
2014,05,18,17,28,17.30
2014,05,18,17,29,17.20
2014,05,18,17,30,17.10
2014,05,18,17,31,17.00
2014,05,18,17,32,17.00
2014,05,18,17,33,16.90
2014,05,18,17,34,16.90
2014,05,18,17,35,16.80
2014,05,18,17,36,16.70
2014,05,18,17,37,16.60
2014,05,18,17,38,16.60
2014,05,18,17,39,16.50
2014,05,18,17,40,16.40
2014,05,18,17,41,16.30
2014,05,18,17,42,16.20
2014,05,18,17,43,16.20
2014,05,18,17,44,16.10